owner,sensor,date,latitude,longitude,vertical_datum,wind_speed,wind_to_direction,wind_speed_of_gust,qcFlag 
ADCP,ioos:station:wmo:42887:1,2013-07-01T00:00:00Z,28.1910,-88.4960,48.2,2.9,297.0,99.0,'11111222,11111222,11144222' 
ADCP,ioos:station:wmo:42887:1,2013-07-01T00:20:00Z,28.1910,-88.4960,48.2,3.4,283.0,99.0,'11111222,11111222,11144222' 
ADCP,ioos:station:wmo:42887:1,2013-07-01T00:40:00Z,28.1910,-88.4960,48.2,2.9,282.0,99.0,'11111222,11111222,11144222' 
ADCP,ioos:station:wmo:42887:1,2013-07-01T01:00:00Z,28.1910,-88.4960,48.2,1.7,282.0,99.0,'11111222,11111222,11144222' 
ADCP,ioos:station:wmo:42887:1,2013-07-01T01:20:00Z,28.1910,-88.4960,48.2,1.5,282.0,99.0,'11111222,11111222,11144222' 
ADCP,ioos:station:wmo:42887:1,2013-07-01T01:40:00Z,28.1910,-88.4960,48.2,1.0,281.0,99.0,'11111222,11111222,11144222' 
ADCP,ioos:station:wmo:42887:1,2013-07-01T02:00:00Z,28.1910,-88.4960,48.2,1.8,275.0,99.0,'11111222,11111222,11144222' 
ADCP,ioos:station:wmo:42887:1,2013-07-01T02:20:00Z,28.1910,-88.4960,48.2,1.0,275.0,99.0,'11111222,11111222,11144222' 
ADCP,ioos:station:wmo:42887:1,2013-07-01T02:40:00Z,28.1910,-88.4960,48.2,1.3,275.0,99.0,'11111222,11111222,11144222' 
ADCP,ioos:station:wmo:42887:1,2013-07-01T03:00:00Z,28.1910,-88.4960,48.2,1.3,273.0,99.0,'11111222,11111222,11144222' 
ADCP,ioos:station:wmo:42887:1,2013-07-01T03:20:00Z,28.1910,-88.4960,48.2,1.8,274.0,99.0,'11111222,11111222,11144222' 
ADCP,ioos:station:wmo:42887:1,2013-07-01T03:40:00Z,28.1910,-88.4960,48.2,2.1,275.0,99.0,'11111222,11111222,11144222' 
ADCP,ioos:station:wmo:42887:1,2013-07-01T04:00:00Z,28.1910,-88.4960,48.2,2.2,274.0,99.0,'11111222,11111222,11144222' 
ADCP,ioos:station:wmo:42887:1,2013-07-01T04:20:00Z,28.1910,-88.4960,48.2,2.5,274.0,99.0,'11111222,11111222,11144222' 
ADCP,ioos:station:wmo:42887:1,2013-07-01T04:40:00Z,28.1910,-88.4960,48.2,2.3,274.0,99.0,'11111222,11111222,11144222' 
ADCP,ioos:station:wmo:42887:1,2013-07-01T05:00:00Z,28.1910,-88.4960,48.2,2.3,274.0,99.0,'11111222,11111222,11144222' 
ADCP,ioos:station:wmo:42887:1,2013-07-01T05:20:00Z,28.1910,-88.4960,48.2,2.1,274.0,99.0,'11111222,11111222,11144222' 
ADCP,ioos:station:wmo:42887:1,2013-07-01T05:40:00Z,28.1910,-88.4960,48.2,2.6,274.0,99.0,'11111222,11111222,11144222' 
ADCP,ioos:station:wmo:42887:1,2013-07-01T06:00:00Z,28.1910,-88.4960,48.2,3.5,274.0,99.0,'11111222,11111222,11144222' 
ADCP,ioos:station:wmo:42887:1,2013-07-01T06:20:00Z,28.1910,-88.4960,48.2,3.0,274.0,99.0,'11111222,11111222,11144222' 
ADCP,ioos:station:wmo:42887:1,2013-07-01T06:40:00Z,28.1910,-88.4960,48.2,3.6,274.0,99.0,'11111222,11111222,11144222' 
ADCP,ioos:station:wmo:42887:1,2013-07-01T07:00:00Z,28.1910,-88.4960,48.2,3.5,220.0,99.0,'11111222,11111222,11144222' 
ADCP,ioos:station:wmo:42887:1,2013-07-01T07:20:00Z,28.1910,-88.4960,48.2,3.7,220.0,99.0,'11111222,11111222,11144222' 
ADCP,ioos:station:wmo:42887:1,2013-07-01T07:40:00Z,28.1910,-88.4960,48.2,4.1,220.0,99.0,'11111222,11111222,11144222' 
ADCP,ioos:station:wmo:42887:1,2013-07-01T08:00:00Z,28.1910,-88.4960,48.2,3.9,225.0,99.0,'11111222,11111222,11144222' 
ADCP,ioos:station:wmo:42887:1,2013-07-01T08:20:00Z,28.1910,-88.4960,48.2,4.1,228.0,99.0,'11111222,11111222,11144222' 
ADCP,ioos:station:wmo:42887:1,2013-07-01T08:40:00Z,28.1910,-88.4960,48.2,4.0,230.0,99.0,'11111222,11111222,11144222' 
ADCP,ioos:station:wmo:42887:1,2013-07-01T09:00:00Z,28.1910,-88.4960,48.2,3.7,229.0,99.0,'11111222,11111222,11144222' 
ADCP,ioos:station:wmo:42887:1,2013-07-01T09:20:00Z,28.1910,-88.4960,48.2,4.2,228.0,99.0,'11111222,11111222,11144222' 
ADCP,ioos:station:wmo:42887:1,2013-07-01T09:40:00Z,28.1910,-88.4960,48.2,4.1,218.0,99.0,'11111222,11111222,11144222' 
ADCP,ioos:station:wmo:42887:1,2013-07-01T10:00:00Z,28.1910,-88.4960,48.2,4.1,219.0,99.0,'11111222,11111222,11144222' 
ADCP,ioos:station:wmo:42887:1,2013-07-01T10:20:00Z,28.1910,-88.4960,48.2,3.6,226.0,99.0,'11111222,11111222,11144222' 
ADCP,ioos:station:wmo:42887:1,2013-07-01T10:40:00Z,28.1910,-88.4960,48.2,3.2,221.0,99.0,'11111222,11111222,11144222' 
ADCP,ioos:station:wmo:42887:1,2013-07-01T11:00:00Z,28.1910,-88.4960,48.2,3.7,229.0,99.0,'11111222,11111222,11144222' 
ADCP,ioos:station:wmo:42887:1,2013-07-01T11:20:00Z,28.1910,-88.4960,48.2,4.1,229.0,99.0,'11111222,11111222,11144222' 
ADCP,ioos:station:wmo:42887:1,2013-07-01T11:40:00Z,28.1910,-88.4960,48.2,2.5,259.0,99.0,'11111222,11111222,11144222' 
ADCP,ioos:station:wmo:42887:1,2013-07-01T12:00:00Z,28.1910,-88.4960,48.2,2.3,259.0,99.0,'11111222,11111222,11144222' 
ADCP,ioos:station:wmo:42887:1,2013-07-01T12:20:00Z,28.1910,-88.4960,48.2,2.7,259.0,99.0,'11111222,11111222,11144222' 
ADCP,ioos:station:wmo:42887:1,2013-07-01T12:40:00Z,28.1910,-88.4960,48.2,2.9,259.0,99.0,'11111222,11111222,11144222' 
ADCP,ioos:station:wmo:42887:1,2013-07-01T13:00:00Z,28.1910,-88.4960,48.2,2.3,259.0,99.0,'11111222,11111222,11144222' 
ADCP,ioos:station:wmo:42887:1,2013-07-01T13:20:00Z,28.1910,-88.4960,48.2,1.9,259.0,99.0,'11111222,11111222,11144222' 
ADCP,ioos:station:wmo:42887:1,2013-07-01T13:40:00Z,28.1910,-88.4960,48.2,2.7,259.0,99.0,'11111222,11111222,11144222' 
ADCP,ioos:station:wmo:42887:1,2013-07-01T14:00:00Z,28.1910,-88.4960,48.2,2.6,259.0,99.0,'11111222,11111222,11144222' 
ADCP,ioos:station:wmo:42887:1,2013-07-01T14:20:00Z,28.1910,-88.4960,48.2,1.4,259.0,99.0,'11111222,11111222,11144222' 
ADCP,ioos:station:wmo:42887:1,2013-07-01T14:40:00Z,28.1910,-88.4960,48.2,1.3,259.0,99.0,'11111222,11111222,11144222' 
ADCP,ioos:station:wmo:42887:1,2013-07-01T15:00:00Z,28.1910,-88.4960,48.2,1.2,259.0,99.0,'11111222,11111222,11144222' 
ADCP,ioos:station:wmo:42887:1,2013-07-01T15:20:00Z,28.1910,-88.4960,48.2,1.2,259.0,99.0,'11111222,11111222,11144222' 
ADCP,ioos:station:wmo:42887:1,2013-07-01T15:40:00Z,28.1910,-88.4960,48.2,1.4,259.0,99.0,'11111222,11111222,11144222' 
ADCP,ioos:station:wmo:42887:1,2013-07-01T16:00:00Z,28.1910,-88.4960,48.2,1.2,259.0,99.0,'11111222,11111222,11144222' 
ADCP,ioos:station:wmo:42887:1,2013-07-01T16:20:00Z,28.1910,-88.4960,48.2,1.4,259.0,99.0,'11111222,11111222,11144222' 
ADCP,ioos:station:wmo:42887:1,2013-07-01T16:40:00Z,28.1910,-88.4960,48.2,1.1,259.0,99.0,'11111222,11111222,11144222' 
ADCP,ioos:station:wmo:42887:1,2013-07-01T17:00:00Z,28.1910,-88.4960,48.2,2.0,259.0,99.0,'11111222,11111222,11144222' 
ADCP,ioos:station:wmo:42887:1,2013-07-01T17:20:00Z,28.1910,-88.4960,48.2,2.4,259.0,99.0,'11111222,11111222,11144222' 
ADCP,ioos:station:wmo:42887:1,2013-07-01T17:40:00Z,28.1910,-88.4960,48.2,2.6,302.0,99.0,'11111222,11111222,11144222' 
ADCP,ioos:station:wmo:42887:1,2013-07-01T18:00:00Z,28.1910,-88.4960,48.2,2.1,302.0,99.0,'11111222,11111222,11144222' 
ADCP,ioos:station:wmo:42887:1,2013-07-01T18:20:00Z,28.1910,-88.4960,48.2,3.5,333.0,99.0,'11111222,11111222,11144222' 
ADCP,ioos:station:wmo:42887:1,2013-07-01T18:40:00Z,28.1910,-88.4960,48.2,2.1,332.0,99.0,'11111222,11111222,11144222' 
ADCP,ioos:station:wmo:42887:1,2013-07-01T19:00:00Z,28.1910,-88.4960,48.2,3.9,335.0,99.0,'11111222,11111222,11144222' 
ADCP,ioos:station:wmo:42887:1,2013-07-01T19:20:00Z,28.1910,-88.4960,48.2,2.5,337.0,99.0,'11111222,11111222,11144222' 
ADCP,ioos:station:wmo:42887:1,2013-07-01T19:40:00Z,28.1910,-88.4960,48.2,2.1,337.0,99.0,'11111222,11111222,11144222' 
ADCP,ioos:station:wmo:42887:1,2013-07-01T20:00:00Z,28.1910,-88.4960,48.2,2.5,337.0,99.0,'11111222,11111222,11144222' 
ADCP,ioos:station:wmo:42887:1,2013-07-01T20:20:00Z,28.1910,-88.4960,48.2,2.2,337.0,99.0,'11111222,11111222,11144222' 
ADCP,ioos:station:wmo:42887:1,2013-07-01T20:40:00Z,28.1910,-88.4960,48.2,2.8,349.0,99.0,'11111222,11111222,11144222' 
ADCP,ioos:station:wmo:42887:1,2013-07-01T21:00:00Z,28.1910,-88.4960,48.2,2.5,349.0,99.0,'11111222,11111222,11144222' 
ADCP,ioos:station:wmo:42887:1,2013-07-01T21:20:00Z,28.1910,-88.4960,48.2,2.2,350.0,99.0,'11111222,11111222,11144222' 
ADCP,ioos:station:wmo:42887:1,2013-07-01T21:40:00Z,28.1910,-88.4960,48.2,1.4,350.0,99.0,'11111222,11111222,11144222' 
ADCP,ioos:station:wmo:42887:1,2013-07-01T22:00:00Z,28.1910,-88.4960,48.2,2.7,351.0,99.0,'11111222,11111222,11144222' 
ADCP,ioos:station:wmo:42887:1,2013-07-01T22:20:00Z,28.1910,-88.4960,48.2,2.5,351.0,99.0,'11111222,11111222,11144222' 
ADCP,ioos:station:wmo:42887:1,2013-07-01T22:40:00Z,28.1910,-88.4960,48.2,2.5,353.0,99.0,'11111222,11111222,11144222' 
ADCP,ioos:station:wmo:42887:1,2013-07-01T23:00:00Z,28.1910,-88.4960,48.2,2.4,353.0,99.0,'11111222,11111222,11144222' 
ADCP,ioos:station:wmo:42887:1,2013-07-01T23:20:00Z,28.1910,-88.4960,48.2,2.9,353.0,99.0,'11111222,11111222,11144222' 
ADCP,ioos:station:wmo:42887:1,2013-07-01T23:40:00Z,28.1910,-88.4960,48.2,1.6,353.0,99.0,'11111222,11111222,11144222' 
ADCP,ioos:station:wmo:42887:1,2013-07-02T00:00:00Z,28.1910,-88.4960,48.2,1.6,355.0,99.0,'11111222,11111222,11144222' 
ADCP,ioos:station:wmo:42887:1,2013-07-02T00:20:00Z,28.1910,-88.4960,48.2,1.5,10.0,99.0,'11111222,11111222,11144222' 
ADCP,ioos:station:wmo:42887:1,2013-07-02T00:40:00Z,28.1910,-88.4960,48.2,2.1,13.0,99.0,'11111222,11111222,11144222' 
ADCP,ioos:station:wmo:42887:1,2013-07-02T01:00:00Z,28.1910,-88.4960,48.2,1.9,13.0,99.0,'11111222,11111222,11144222' 
ADCP,ioos:station:wmo:42887:1,2013-07-02T01:20:00Z,28.1910,-88.4960,48.2,2.3,29.0,99.0,'11111222,11111222,11144222' 
ADCP,ioos:station:wmo:42887:1,2013-07-02T01:40:00Z,28.1910,-88.4960,48.2,2.9,37.0,99.0,'11111222,11111222,11144222' 
ADCP,ioos:station:wmo:42887:1,2013-07-02T02:00:00Z,28.1910,-88.4960,48.2,2.1,38.0,99.0,'11111222,11111222,11144222' 
ADCP,ioos:station:wmo:42887:1,2013-07-02T02:20:00Z,28.1910,-88.4960,48.2,2.7,114.0,99.0,'11111222,11111222,11144222' 
ADCP,ioos:station:wmo:42887:1,2013-07-02T02:40:00Z,28.1910,-88.4960,48.2,2.5,121.0,99.0,'11111222,11111222,11144222' 
ADCP,ioos:station:wmo:42887:1,2013-07-02T03:00:00Z,28.1910,-88.4960,48.2,2.6,128.0,99.0,'11111222,11111222,11144222' 
ADCP,ioos:station:wmo:42887:1,2013-07-02T03:20:00Z,28.1910,-88.4960,48.2,2.2,127.0,99.0,'11111222,11111222,11144222' 
ADCP,ioos:station:wmo:42887:1,2013-07-02T03:40:00Z,28.1910,-88.4960,48.2,2.1,114.0,99.0,'11111222,11111222,11144222' 
ADCP,ioos:station:wmo:42887:1,2013-07-02T04:00:00Z,28.1910,-88.4960,48.2,2.4,135.0,99.0,'11111222,11111222,11144222' 
ADCP,ioos:station:wmo:42887:1,2013-07-02T04:20:00Z,28.1910,-88.4960,48.2,1.8,102.0,99.0,'11111222,11111222,11144222' 
ADCP,ioos:station:wmo:42887:1,2013-07-02T04:40:00Z,28.1910,-88.4960,48.2,1.7,132.0,99.0,'11111222,11111222,11144222' 
ADCP,ioos:station:wmo:42887:1,2013-07-02T05:00:00Z,28.1910,-88.4960,48.2,1.3,136.0,99.0,'11111222,11111222,11144222' 
ADCP,ioos:station:wmo:42887:1,2013-07-02T05:20:00Z,28.1910,-88.4960,48.2,2.0,149.0,99.0,'11111222,11111222,11144222' 
ADCP,ioos:station:wmo:42887:1,2013-07-02T05:40:00Z,28.1910,-88.4960,48.2,2.2,144.0,99.0,'11111222,11111222,11144222' 
ADCP,ioos:station:wmo:42887:1,2013-07-02T06:00:00Z,28.1910,-88.4960,48.2,3.0,162.0,99.0,'11111222,11111222,11144222' 
ADCP,ioos:station:wmo:42887:1,2013-07-02T06:20:00Z,28.1910,-88.4960,48.2,1.7,179.0,99.0,'11111222,11111222,11144222' 
ADCP,ioos:station:wmo:42887:1,2013-07-02T06:40:00Z,28.1910,-88.4960,48.2,0.9,197.0,99.0,'11111222,11111222,11144222' 
ADCP,ioos:station:wmo:42887:1,2013-07-02T07:00:00Z,28.1910,-88.4960,48.2,1.0,193.0,99.0,'11111222,11111222,11144222' 
ADCP,ioos:station:wmo:42887:1,2013-07-02T07:20:00Z,28.1910,-88.4960,48.2,1.8,160.0,99.0,'11111222,11111222,11144222' 
ADCP,ioos:station:wmo:42887:1,2013-07-02T07:40:00Z,28.1910,-88.4960,48.2,1.2,215.0,99.0,'11111222,11111222,11144222' 
ADCP,ioos:station:wmo:42887:1,2013-07-02T08:00:00Z,28.1910,-88.4960,48.2,2.1,212.0,99.0,'11111222,11111222,11144222' 
ADCP,ioos:station:wmo:42887:1,2013-07-02T08:20:00Z,28.1910,-88.4960,48.2,2.2,221.0,99.0,'11111222,11111222,11144222' 
ADCP,ioos:station:wmo:42887:1,2013-07-02T08:40:00Z,28.1910,-88.4960,48.2,2.3,213.0,99.0,'11111222,11111222,11144222' 
ADCP,ioos:station:wmo:42887:1,2013-07-02T09:00:00Z,28.1910,-88.4960,48.2,3.4,218.0,99.0,'11111222,11111222,11144222' 
ADCP,ioos:station:wmo:42887:1,2013-07-02T09:20:00Z,28.1910,-88.4960,48.2,2.2,186.0,99.0,'11111222,11111222,11144222' 
ADCP,ioos:station:wmo:42887:1,2013-07-02T09:40:00Z,28.1910,-88.4960,48.2,1.6,211.0,99.0,'11111222,11111222,11144222' 
ADCP,ioos:station:wmo:42887:1,2013-07-02T10:00:00Z,28.1910,-88.4960,48.2,3.4,225.0,99.0,'11111222,11111222,11144222' 
ADCP,ioos:station:wmo:42887:1,2013-07-02T10:20:00Z,28.1910,-88.4960,48.2,3.0,238.0,99.0,'11111222,11111222,11144222' 
ADCP,ioos:station:wmo:42887:1,2013-07-02T10:40:00Z,28.1910,-88.4960,48.2,2.6,233.0,99.0,'11111222,11111222,11144222' 
ADCP,ioos:station:wmo:42887:1,2013-07-02T11:00:00Z,28.1910,-88.4960,48.2,2.4,234.0,99.0,'11111222,11111222,11144222' 
ADCP,ioos:station:wmo:42887:1,2013-07-02T11:20:00Z,28.1910,-88.4960,48.2,1.9,234.0,99.0,'11111222,11111222,11144222' 
ADCP,ioos:station:wmo:42887:1,2013-07-02T11:40:00Z,28.1910,-88.4960,48.2,1.1,234.0,99.0,'11111222,11111222,11144222' 
ADCP,ioos:station:wmo:42887:1,2013-07-02T12:00:00Z,28.1910,-88.4960,48.2,1.4,239.0,99.0,'11111222,11111222,11144222' 
ADCP,ioos:station:wmo:42887:1,2013-07-02T12:20:00Z,28.1910,-88.4960,48.2,0.6,217.0,99.0,'11111222,11111222,11144222' 
ADCP,ioos:station:wmo:42887:1,2013-07-02T12:40:00Z,28.1910,-88.4960,48.2,0.6,215.0,99.0,'11111222,11111222,11144222' 
ADCP,ioos:station:wmo:42887:1,2013-07-02T13:00:00Z,28.1910,-88.4960,48.2,1.0,233.0,99.0,'11111222,11111222,11144222' 
ADCP,ioos:station:wmo:42887:1,2013-07-02T13:20:00Z,28.1910,-88.4960,48.2,1.1,246.0,99.0,'11111222,11111222,11144222' 
ADCP,ioos:station:wmo:42887:1,2013-07-02T13:40:00Z,28.1910,-88.4960,48.2,1.6,260.0,99.0,'11111222,11111222,11144222' 
ADCP,ioos:station:wmo:42887:1,2013-07-02T14:00:00Z,28.1910,-88.4960,48.2,2.7,254.0,99.0,'11111222,11111222,11144222' 
ADCP,ioos:station:wmo:42887:1,2013-07-02T14:20:00Z,28.1910,-88.4960,48.2,3.0,249.0,99.0,'11111222,11111222,11144222' 
ADCP,ioos:station:wmo:42887:1,2013-07-02T14:40:00Z,28.1910,-88.4960,48.2,2.7,248.0,99.0,'11111222,11111222,11144222' 
ADCP,ioos:station:wmo:42887:1,2013-07-02T15:00:00Z,28.1910,-88.4960,48.2,2.0,248.0,99.0,'11111222,11111222,11144222' 
ADCP,ioos:station:wmo:42887:1,2013-07-02T15:20:00Z,28.1910,-88.4960,48.2,2.9,239.0,99.0,'11111222,11111222,11144222' 
ADCP,ioos:station:wmo:42887:1,2013-07-02T15:40:00Z,28.1910,-88.4960,48.2,2.0,253.0,99.0,'11111222,11111222,11144222' 
ADCP,ioos:station:wmo:42887:1,2013-07-02T16:00:00Z,28.1910,-88.4960,48.2,0.9,239.0,99.0,'11111222,11111222,11144222' 
ADCP,ioos:station:wmo:42887:1,2013-07-02T16:20:00Z,28.1910,-88.4960,48.2,2.3,234.0,99.0,'11111222,11111222,11144222' 
ADCP,ioos:station:wmo:42887:1,2013-07-02T16:40:00Z,28.1910,-88.4960,48.2,1.7,229.0,99.0,'11111222,11111222,11144222' 
ADCP,ioos:station:wmo:42887:1,2013-07-02T17:00:00Z,28.1910,-88.4960,48.2,2.1,216.0,99.0,'11111222,11111222,11144222' 
ADCP,ioos:station:wmo:42887:1,2013-07-02T17:20:00Z,28.1910,-88.4960,48.2,1.4,199.0,99.0,'11111222,11111222,11144222' 
ADCP,ioos:station:wmo:42887:1,2013-07-02T17:40:00Z,28.1910,-88.4960,48.2,0.9,215.0,99.0,'11111222,11111222,11144222' 
ADCP,ioos:station:wmo:42887:1,2013-07-02T18:00:00Z,28.1910,-88.4960,48.2,1.4,188.0,99.0,'11111222,11111222,11144222' 
ADCP,ioos:station:wmo:42887:1,2013-07-02T18:20:00Z,28.1910,-88.4960,48.2,0.7,196.0,99.0,'11111222,11111222,11144222' 
ADCP,ioos:station:wmo:42887:1,2013-07-02T18:40:00Z,28.1910,-88.4960,48.2,1.0,203.0,99.0,'11111222,11111222,11144222' 
ADCP,ioos:station:wmo:42887:1,2013-07-02T19:00:00Z,28.1910,-88.4960,48.2,2.0,205.0,99.0,'11111222,11111222,11144222' 
ADCP,ioos:station:wmo:42887:1,2013-07-02T19:20:00Z,28.1910,-88.4960,48.2,2.4,182.0,99.0,'11111222,11111222,11144222' 
ADCP,ioos:station:wmo:42887:1,2013-07-02T19:40:00Z,28.1910,-88.4960,48.2,1.0,193.0,99.0,'11111222,11111222,11144222' 
ADCP,ioos:station:wmo:42887:1,2013-07-02T20:00:00Z,28.1910,-88.4960,48.2,1.2,194.0,99.0,'11111222,11111222,11144222' 
ADCP,ioos:station:wmo:42887:1,2013-07-02T20:20:00Z,28.1910,-88.4960,48.2,2.5,189.0,99.0,'11111222,11111222,11144222' 
ADCP,ioos:station:wmo:42887:1,2013-07-02T20:40:00Z,28.1910,-88.4960,48.2,2.3,183.0,99.0,'11111222,11111222,11144222' 
ADCP,ioos:station:wmo:42887:1,2013-07-02T21:00:00Z,28.1910,-88.4960,48.2,2.1,209.0,99.0,'11111222,11111222,11144222' 
ADCP,ioos:station:wmo:42887:1,2013-07-02T21:20:00Z,28.1910,-88.4960,48.2,1.4,200.0,99.0,'11111222,11111222,11144222' 
ADCP,ioos:station:wmo:42887:1,2013-07-02T21:40:00Z,28.1910,-88.4960,48.2,1.6,187.0,99.0,'11111222,11111222,11144222' 
ADCP,ioos:station:wmo:42887:1,2013-07-02T22:00:00Z,28.1910,-88.4960,48.2,2.0,176.0,99.0,'11111222,11111222,11144222' 
ADCP,ioos:station:wmo:42887:1,2013-07-02T22:20:00Z,28.1910,-88.4960,48.2,1.8,179.0,99.0,'11111222,11111222,11144222' 
ADCP,ioos:station:wmo:42887:1,2013-07-02T22:40:00Z,28.1910,-88.4960,48.2,1.0,180.0,99.0,'11111222,11111222,11144222' 
ADCP,ioos:station:wmo:42887:1,2013-07-02T23:00:00Z,28.1910,-88.4960,48.2,2.1,164.0,99.0,'11111222,11111222,11144222' 
ADCP,ioos:station:wmo:42887:1,2013-07-02T23:20:00Z,28.1910,-88.4960,48.2,1.5,141.0,99.0,'11111222,11111222,11144222' 
ADCP,ioos:station:wmo:42887:1,2013-07-02T23:40:00Z,28.1910,-88.4960,48.2,2.3,154.0,99.0,'11111222,11111222,11144222' 
ADCP,ioos:station:wmo:42887:1,2013-07-03T00:00:00Z,28.1910,-88.4960,48.2,2.5,169.0,99.0,'11111222,11111222,11144222' 
ADCP,ioos:station:wmo:42887:1,2013-07-03T00:20:00Z,28.1910,-88.4960,48.2,2.2,155.0,99.0,'11111222,11111222,11144222' 
ADCP,ioos:station:wmo:42887:1,2013-07-03T00:40:00Z,28.1910,-88.4960,48.2,2.3,153.0,99.0,'11111222,11111222,11144222' 
ADCP,ioos:station:wmo:42887:1,2013-07-03T01:00:00Z,28.1910,-88.4960,48.2,1.6,128.0,99.0,'11111222,11111222,11144222' 
ADCP,ioos:station:wmo:42887:1,2013-07-03T01:20:00Z,28.1910,-88.4960,48.2,2.6,153.0,99.0,'11111222,11111222,11144222' 
ADCP,ioos:station:wmo:42887:1,2013-07-03T01:40:00Z,28.1910,-88.4960,48.2,1.1,135.0,99.0,'11111222,11111222,11144222' 
ADCP,ioos:station:wmo:42887:1,2013-07-03T02:00:00Z,28.1910,-88.4960,48.2,1.3,155.0,99.0,'11111222,11111222,11144222' 
ADCP,ioos:station:wmo:42887:1,2013-07-03T02:20:00Z,28.1910,-88.4960,48.2,0.9,169.0,99.0,'11111222,11111222,11144222' 
ADCP,ioos:station:wmo:42887:1,2013-07-03T02:40:00Z,28.1910,-88.4960,48.2,1.3,168.0,99.0,'11111222,11111222,11144222' 
ADCP,ioos:station:wmo:42887:1,2013-07-03T03:00:00Z,28.1910,-88.4960,48.2,2.9,157.0,99.0,'11111222,11111222,11144222' 
ADCP,ioos:station:wmo:42887:1,2013-07-03T03:20:00Z,28.1910,-88.4960,48.2,2.6,170.0,99.0,'11111222,11111222,11144222' 
ADCP,ioos:station:wmo:42887:1,2013-07-03T03:40:00Z,28.1910,-88.4960,48.2,2.8,158.0,99.0,'11111222,11111222,11144222' 
ADCP,ioos:station:wmo:42887:1,2013-07-03T04:00:00Z,28.1910,-88.4960,48.2,3.4,161.0,99.0,'11111222,11111222,11144222' 
ADCP,ioos:station:wmo:42887:1,2013-07-03T04:20:00Z,28.1910,-88.4960,48.2,2.8,148.0,99.0,'11111222,11111222,11144222' 
ADCP,ioos:station:wmo:42887:1,2013-07-03T04:40:00Z,28.1910,-88.4960,48.2,3.0,165.0,99.0,'11111222,11111222,11144222' 
ADCP,ioos:station:wmo:42887:1,2013-07-03T05:00:00Z,28.1910,-88.4960,48.2,2.0,162.0,99.0,'11111222,11111222,11144222' 
ADCP,ioos:station:wmo:42887:1,2013-07-03T05:20:00Z,28.1910,-88.4960,48.2,1.8,169.0,99.0,'11111222,11111222,11144222' 
ADCP,ioos:station:wmo:42887:1,2013-07-03T05:40:00Z,28.1910,-88.4960,48.2,1.4,153.0,99.0,'11111222,11111222,11144222' 
ADCP,ioos:station:wmo:42887:1,2013-07-03T06:00:00Z,28.1910,-88.4960,48.2,0.6,173.0,99.0,'11111222,11111222,11144222' 
ADCP,ioos:station:wmo:42887:1,2013-07-03T06:20:00Z,28.1910,-88.4960,48.2,1.1,165.0,99.0,'11111222,11111222,11144222' 
ADCP,ioos:station:wmo:42887:1,2013-07-03T06:40:00Z,28.1910,-88.4960,48.2,1.1,147.0,99.0,'11111222,11111222,11144222' 
ADCP,ioos:station:wmo:42887:1,2013-07-03T07:00:00Z,28.1910,-88.4960,48.2,0.5,142.0,99.0,'11111222,11111222,11144222' 
ADCP,ioos:station:wmo:42887:1,2013-07-03T07:20:00Z,28.1910,-88.4960,48.2,1.5,143.0,99.0,'11111222,11111222,11144222' 
ADCP,ioos:station:wmo:42887:1,2013-07-03T07:40:00Z,28.1910,-88.4960,48.2,1.2,126.0,99.0,'11111222,11111222,11144222' 
ADCP,ioos:station:wmo:42887:1,2013-07-03T08:00:00Z,28.1910,-88.4960,48.2,1.4,115.0,99.0,'11111222,11111222,11144222' 
ADCP,ioos:station:wmo:42887:1,2013-07-03T08:20:00Z,28.1910,-88.4960,48.2,1.8,125.0,99.0,'11111222,11111222,11144222' 
ADCP,ioos:station:wmo:42887:1,2013-07-03T08:40:00Z,28.1910,-88.4960,48.2,1.2,185.0,99.0,'11111222,11111222,11144222' 
ADCP,ioos:station:wmo:42887:1,2013-07-03T09:00:00Z,28.1910,-88.4960,48.2,1.0,172.0,99.0,'11111222,11111222,11144222' 
ADCP,ioos:station:wmo:42887:1,2013-07-03T09:20:00Z,28.1910,-88.4960,48.2,2.2,52.0,99.0,'11111222,11111222,11144222' 
ADCP,ioos:station:wmo:42887:1,2013-07-03T09:40:00Z,28.1910,-88.4960,48.2,2.1,59.0,99.0,'11111222,11111222,11144222' 
ADCP,ioos:station:wmo:42887:1,2013-07-03T10:00:00Z,28.1910,-88.4960,48.2,2.4,60.0,99.0,'11111222,11111222,11144222' 
ADCP,ioos:station:wmo:42887:1,2013-07-03T10:20:00Z,28.1910,-88.4960,48.2,2.0,66.0,99.0,'11111222,11111222,11144222' 
ADCP,ioos:station:wmo:42887:1,2013-07-03T10:40:00Z,28.1910,-88.4960,48.2,1.4,49.0,99.0,'11111222,11111222,11144222' 
ADCP,ioos:station:wmo:42887:1,2013-07-03T11:00:00Z,28.1910,-88.4960,48.2,1.3,61.0,99.0,'11111222,11111222,11144222' 
ADCP,ioos:station:wmo:42887:1,2013-07-03T11:20:00Z,28.1910,-88.4960,48.2,1.9,58.0,99.0,'11111222,11111222,11144222' 
ADCP,ioos:station:wmo:42887:1,2013-07-03T11:40:00Z,28.1910,-88.4960,48.2,0.6,87.0,99.0,'11111222,11111222,11144222' 
ADCP,ioos:station:wmo:42887:1,2013-07-03T12:00:00Z,28.1910,-88.4960,48.2,1.1,51.0,99.0,'11111222,11111222,11144222' 
ADCP,ioos:station:wmo:42887:1,2013-07-03T12:20:00Z,28.1910,-88.4960,48.2,1.0,40.0,99.0,'11111222,11111222,11144222' 
ADCP,ioos:station:wmo:42887:1,2013-07-03T12:40:00Z,28.1910,-88.4960,48.2,1.7,56.0,99.0,'11111222,11111222,11144222' 
ADCP,ioos:station:wmo:42887:1,2013-07-03T13:00:00Z,28.1910,-88.4960,48.2,2.1,58.0,99.0,'11111222,11111222,11144222' 
ADCP,ioos:station:wmo:42887:1,2013-07-03T13:20:00Z,28.1910,-88.4960,48.2,1.7,48.0,99.0,'11111222,11111222,11144222' 
ADCP,ioos:station:wmo:42887:1,2013-07-03T13:40:00Z,28.1910,-88.4960,48.2,4.8,54.0,99.0,'11111222,11111222,11144222' 
ADCP,ioos:station:wmo:42887:1,2013-07-03T14:00:00Z,28.1910,-88.4960,48.2,3.3,77.0,99.0,'11111222,11111222,11144222' 
ADCP,ioos:station:wmo:42887:1,2013-07-03T14:20:00Z,28.1910,-88.4960,48.2,2.8,66.0,99.0,'11111222,11111222,11144222' 
ADCP,ioos:station:wmo:42887:1,2013-07-03T14:40:00Z,28.1910,-88.4960,48.2,1.8,72.0,99.0,'11111222,11111222,11144222' 
ADCP,ioos:station:wmo:42887:1,2013-07-03T15:00:00Z,28.1910,-88.4960,48.2,1.7,83.0,99.0,'11111222,11111222,11144222' 
ADCP,ioos:station:wmo:42887:1,2013-07-03T15:20:00Z,28.1910,-88.4960,48.2,0.6,85.0,99.0,'11111222,11111222,11144222' 
ADCP,ioos:station:wmo:42887:1,2013-07-03T15:40:00Z,28.1910,-88.4960,48.2,1.2,265.0,99.0,'11111222,11111222,11144222' 
ADCP,ioos:station:wmo:42887:1,2013-07-03T16:00:00Z,28.1910,-88.4960,48.2,0.3,267.0,99.0,'11111222,11111222,11144222' 
ADCP,ioos:station:wmo:42887:1,2013-07-03T16:20:00Z,28.1910,-88.4960,48.2,2.0,257.0,99.0,'11111222,11111222,11144222' 
ADCP,ioos:station:wmo:42887:1,2013-07-03T16:40:00Z,28.1910,-88.4960,48.2,0.2,278.0,99.0,'11111222,11111222,11144222' 
ADCP,ioos:station:wmo:42887:1,2013-07-03T17:00:00Z,28.1910,-88.4960,48.2,0.9,280.0,99.0,'11111222,11111222,11144222' 
ADCP,ioos:station:wmo:42887:1,2013-07-03T17:20:00Z,28.1910,-88.4960,48.2,0.4,275.0,99.0,'11111222,11111222,11144222' 
ADCP,ioos:station:wmo:42887:1,2013-07-03T17:40:00Z,28.1910,-88.4960,48.2,3.5,254.0,99.0,'11111222,11111222,11144222' 
ADCP,ioos:station:wmo:42887:1,2013-07-03T18:00:00Z,28.1910,-88.4960,48.2,2.4,262.0,99.0,'11111222,11111222,11144222' 
ADCP,ioos:station:wmo:42887:1,2013-07-03T18:20:00Z,28.1910,-88.4960,48.2,3.4,267.0,99.0,'11111222,11111222,11144222' 
ADCP,ioos:station:wmo:42887:1,2013-07-03T18:40:00Z,28.1910,-88.4960,48.2,3.2,272.0,99.0,'11111222,11111222,11144222' 
ADCP,ioos:station:wmo:42887:1,2013-07-03T19:00:00Z,28.1910,-88.4960,48.2,2.8,318.0,99.0,'11111222,11111222,11144222' 